Zurück zum Katalog

CZ-6A DEB

AktivPO
NORAD 61331·DEBRIS·🇨🇳 China

Gestartet Aug 6, 2024 von Taiyuan Satellite Launch Center

Loading…

Nächste Überflüge (nächste 24 Stunden)

TLE

AktuellSource: Space-Track

Epoche: Sep 14, 2026, 12:26 UTC

1 61331U 24140UU  26257.51849086  .00006617  00000-0  79760-3 0  9990
2 61331  89.1387 272.0635 0099058 248.6877 110.3750 14.80240523108960

Verfolge CZ-6A DEB in Echtzeit mit AllMySat

Download on the App Store